Time,TemperatureF,DewpointF,PressureIn,WindDirection,WindDirectionDegrees,WindSpeedMPH,WindSpeedGustMPH,Humidity,HourlyPrecipIn,Conditions,Clouds,dailyrainin,SoftwareType,DateUTC
2013-02-15 00:00:00,43.8,40.8,30.05,NW,320,0.0,0.0,89,0.00,,,0.00,Wunderground v.1.15,2013-02-15 05:00:00,
2013-02-15 00:05:00,43.6,40.6,30.04,NW,320,0.0,0.0,89,0.00,,,0.00,Wunderground v.1.15,2013-02-15 05:05:00,
2013-02-15 00:10:00,43.4,40.4,30.04,NW,320,0.0,0.0,89,0.00,,,0.00,Wunderground v.1.15,2013-02-15 05:10:00,
2013-02-15 00:15:00,43.3,40.6,30.04,NW,320,0.0,0.0,90,0.00,,,0.00,Wunderground v.1.15,2013-02-15 05:15:00,
2013-02-15 00:25:00,43.3,40.6,30.05,NW,320,0.0,0.0,90,0.00,,,0.00,Wunderground v.1.15,2013-02-15 05:25:00,
2013-02-15 00:30:00,43.2,40.5,30.04,NW,320,0.0,0.0,90,0.00,,,0.00,Wunderground v.1.15,2013-02-15 05:30:00,
2013-02-15 00:35:00,43.2,40.5,30.04,NW,319,0.0,0.0,90,0.00,,,0.00,Wunderground v.1.15,2013-02-15 05:35:00,
2013-02-15 00:40:00,43.2,40.5,30.04,NW,317,0.0,1.0,90,0.00,,,0.00,Wunderground v.1.15,2013-02-15 05:40:00,
2013-02-15 00:50:00,43.0,40.3,30.05,NW,312,0.0,0.0,90,0.00,,,0.00,Wunderground v.1.15,2013-02-15 05:50:00,
2013-02-15 00:55:00,42.9,40.2,30.06,NW,312,0.0,0.0,90,0.00,,,0.00,Wunderground v.1.15,2013-02-15 05:55:00,
2013-02-15 01:05:00,42.7,40.0,30.07,NW,312,1.0,3.0,90,0.00,,,0.00,Wunderground v.1.15,2013-02-15 06:05:00,
2013-02-15 01:15:00,42.7,40.3,30.06,NW,313,1.0,1.0,91,0.00,,,0.00,Wunderground v.1.15,2013-02-15 06:15:00,
2013-02-15 01:20:00,42.7,40.3,30.06,NW,313,0.0,0.0,91,0.00,,,0.00,Wunderground v.1.15,2013-02-15 06:20:00,
2013-02-15 01:30:00,42.5,40.1,30.06,NW,313,0.0,0.0,91,0.00,,,0.00,Wunderground v.1.15,2013-02-15 06:30:00,
2013-02-15 01:35:00,42.3,39.6,30.06,NW,313,0.0,0.0,90,0.00,,,0.00,Wunderground v.1.15,2013-02-15 06:35:00,
2013-02-15 01:45:00,42.2,39.8,30.06,NW,313,0.0,0.0,91,0.00,,,0.00,Wunderground v.1.15,2013-02-15 06:45:00,
2013-02-15 01:55:00,42.1,39.7,30.06,NW,313,0.0,0.0,91,0.00,,,0.00,Wunderground v.1.15,2013-02-15 06:55:00,
2013-02-15 02:05:00,42.0,39.6,30.07,NW,313,0.0,0.0,91,0.00,,,0.00,Wunderground v.1.15,2013-02-15 07:05:00,
2013-02-15 02:15:00,41.8,39.4,30.06,NW,313,0.0,0.0,91,0.00,,,0.00,Wunderground v.1.15,2013-02-15 07:15:00,
2013-02-15 02:20:00,41.7,39.3,30.06,NW,314,0.0,0.0,91,0.00,,,0.00,Wunderground v.1.15,2013-02-15 07:20:00,
2013-02-15 02:30:00,41.6,39.2,30.06,NW,314,0.0,0.0,91,0.00,,,0.00,Wunderground v.1.15,2013-02-15 07:30:00,
2013-02-15 02:40:00,41.6,39.2,30.07,NW,314,0.0,0.0,91,0.00,,,0.00,Wunderground v.1.15,2013-02-15 07:40:00,
2013-02-15 02:50:00,41.7,39.5,30.06,NW,314,0.0,0.0,92,0.00,,,0.00,Wunderground v.1.15,2013-02-15 07:50:00,
2013-02-15 03:00:00,41.6,39.2,30.06,NW,314,0.0,0.0,91,0.00,,,0.00,Wunderground v.1.15,2013-02-15 08:00:00,
2013-02-15 03:10:00,41.2,39.1,30.06,NW,314,0.0,0.0,92,0.00,,,0.00,Wunderground v.1.15,2013-02-15 08:10:00,
2013-02-15 03:20:00,41.1,39.0,30.06,NW,313,0.0,0.0,92,0.00,,,0.00,Wunderground v.1.15,2013-02-15 08:20:00,
2013-02-15 03:25:00,41.0,38.9,30.05,NW,314,0.0,0.0,92,0.00,,,0.00,Wunderground v.1.15,2013-02-15 08:25:00,
2013-02-15 03:35:00,40.8,38.7,30.04,NW,314,0.0,0.0,92,0.00,,,0.00,Wunderground v.1.15,2013-02-15 08:35:00,
2013-02-15 03:45:00,40.7,38.6,30.04,NW,314,0.0,0.0,92,0.00,,,0.00,Wunderground v.1.15,2013-02-15 08:45:00,
2013-02-15 03:50:00,40.6,38.5,30.04,NW,315,0.0,0.0,92,0.00,,,0.00,Wunderground v.1.15,2013-02-15 08:50:00,
2013-02-15 04:00:00,40.5,38.4,30.04,NW,317,0.0,0.0,92,0.00,,,0.00,Wunderground v.1.15,2013-02-15 09:00:00,
2013-02-15 04:10:00,40.4,38.3,30.04,NW,325,0.0,0.0,92,0.00,,,0.00,Wunderground v.1.15,2013-02-15 09:10:00,
2013-02-15 04:20:00,40.4,38.3,30.04,NW,325,0.0,0.0,92,0.00,,,0.00,Wunderground v.1.15,2013-02-15 09:20:00,
2013-02-15 04:30:00,40.4,38.3,30.04,NNW,329,0.0,0.0,92,0.00,,,0.00,Wunderground v.1.15,2013-02-15 09:30:00,
2013-02-15 04:40:00,40.4,38.3,30.04,NNW,329,0.0,0.0,92,0.00,,,0.00,Wunderground v.1.15,2013-02-15 09:40:00,
2013-02-15 04:50:00,40.2,38.1,30.03,NNW,329,0.0,0.0,92,0.00,,,0.00,Wunderground v.1.15,2013-02-15 09:50:00,
2013-02-15 04:55:00,40.2,38.1,30.03,NNW,328,0.0,0.0,92,0.00,,,0.00,Wunderground v.1.15,2013-02-15 09:55:00,
2013-02-15 05:05:00,40.1,38.0,30.04,NNW,328,0.0,0.0,92,0.00,,,0.00,Wunderground v.1.15,2013-02-15 10:05:00,
2013-02-15 05:15:00,39.9,37.8,30.05,NNW,328,0.0,2.0,92,0.00,,,0.00,Wunderground v.1.15,2013-02-15 10:15:00,
2013-02-15 05:20:00,39.8,37.7,30.05,NNW,328,0.0,0.0,92,0.00,,,0.00,Wunderground v.1.15,2013-02-15 10:20:00,
2013-02-15 05:30:00,39.5,37.4,30.05,NNW,328,0.0,0.0,92,0.00,,,0.00,Wunderground v.1.15,2013-02-15 10:30:00,
2013-02-15 05:40:00,39.7,37.8,30.06,NW,306,0.0,0.0,93,0.00,,,0.00,Wunderground v.1.15,2013-02-15 10:40:00,
2013-02-15 05:45:00,39.7,37.8,30.06,NW,309,0.0,0.0,93,0.00,,,0.00,Wunderground v.1.15,2013-02-15 10:45:00,
2013-02-15 05:55:00,39.7,37.8,30.06,NW,323,0.0,0.0,93,0.00,,,0.00,Wunderground v.1.15,2013-02-15 10:55:00,
2013-02-15 06:05:00,39.5,37.6,30.07,NW,323,0.0,0.0,93,0.00,,,0.00,Wunderground v.1.15,2013-02-15 11:05:00,
2013-02-15 06:15:00,39.4,37.5,30.06,NW,323,0.0,0.0,93,0.00,,,0.00,Wunderground v.1.15,2013-02-15 11:15:00,
2013-02-15 06:20:00,39.3,37.4,30.07,NW,323,0.0,0.0,93,0.00,,,0.00,Wunderground v.1.15,2013-02-15 11:20:00,
2013-02-15 06:30:00,39.2,37.3,30.06,NW,323,0.0,0.0,93,0.00,,,0.00,Wunderground v.1.15,2013-02-15 11:30:00,
2013-02-15 06:40:00,39.3,37.4,30.07,NW,325,0.0,0.0,93,0.00,,,0.00,Wunderground v.1.15,2013-02-15 11:40:00,
2013-02-15 06:50:00,39.2,37.3,30.07,NNW,330,0.0,0.0,93,0.00,,,0.00,Wunderground v.1.15,2013-02-15 11:50:00,
2013-02-15 07:00:00,39.2,37.3,30.07,NW,323,0.0,0.0,93,0.00,,,0.00,Wunderground v.1.15,2013-02-15 12:00:00,
2013-02-15 07:10:00,39.2,37.3,30.07,NNW,331,0.0,1.0,93,0.00,,,0.00,Wunderground v.1.15,2013-02-15 12:10:00,
2013-02-15 07:20:00,39.5,37.6,30.07,NW,325,1.0,1.0,93,0.00,,,0.00,Wunderground v.1.15,2013-02-15 12:20:00,
2013-02-15 07:30:00,39.9,38.0,30.07,NW,315,1.0,1.0,93,0.00,,,0.00,Wunderground v.1.15,2013-02-15 12:30:00,
2013-02-15 07:35:00,40.2,38.3,30.08,NW,316,1.0,1.0,93,0.00,,,0.00,Wunderground v.1.15,2013-02-15 12:35:00,
2013-02-15 07:45:00,40.7,38.6,30.08,NW,315,0.0,1.0,92,0.00,,,0.00,Wunderground v.1.15,2013-02-15 12:45:00,
2013-02-15 07:55:00,41.3,39.2,30.08,NW,310,1.0,2.0,92,0.00,,,0.00,Wunderground v.1.15,2013-02-15 12:55:00,
2013-02-15 08:00:00,41.8,39.6,30.08,WNW,300,1.0,1.0,92,0.00,,,0.00,Wunderground v.1.15,2013-02-15 13:00:00,
2013-02-15 08:10:00,42.8,40.4,30.08,NW,309,0.0,2.0,91,0.00,,,0.00,Wunderground v.1.15,2013-02-15 13:10:00,
2013-02-15 08:15:00,43.2,40.5,30.08,NW,306,1.0,2.0,90,0.00,,,0.00,Wunderground v.1.15,2013-02-15 13:15:00,
2013-02-15 08:20:00,43.7,41.0,30.08,North,360,0.0,0.0,90,0.00,,,0.00,Wunderground v.1.15,2013-02-15 13:20:00,
2013-02-15 08:30:00,44.4,41.4,30.09,WNW,301,0.0,0.0,89,0.00,,,0.00,Wunderground v.1.15,2013-02-15 13:30:00,
2013-02-15 08:35:00,44.8,41.5,30.09,NNW,338,0.0,0.0,88,0.00,,,0.00,Wunderground v.1.15,2013-02-15 13:35:00,
2013-02-15 08:45:00,45.7,41.8,30.09,NW,321,0.0,1.0,86,0.00,,,0.00,Wunderground v.1.15,2013-02-15 13:45:00,
2013-02-15 08:50:00,46.2,41.9,30.09,NNW,333,0.0,0.0,85,0.00,,,0.00,Wunderground v.1.15,2013-02-15 13:50:00,
2013-02-15 08:55:00,46.5,41.9,30.09,NW,317,0.0,0.0,84,0.00,,,0.00,Wunderground v.1.15,2013-02-15 13:55:00,
2013-02-15 09:05:00,47.4,42.2,30.09,NNW,338,0.0,0.0,82,0.00,,,0.00,Wunderground v.1.15,2013-02-15 14:05:00,
2013-02-15 09:10:00,48.1,42.2,30.09,NNE,18,0.0,0.0,80,0.00,,,0.00,Wunderground v.1.15,2013-02-15 14:10:00,
2013-02-15 09:15:00,48.5,42.3,30.09,NE,36,0.0,0.0,79,0.00,,,0.00,Wunderground v.1.15,2013-02-15 14:15:00,
2013-02-15 09:25:00,49.4,42.1,30.09,WNW,303,0.0,0.0,76,0.00,,,0.00,Wunderground v.1.15,2013-02-15 14:25:00,
2013-02-15 09:30:00,49.7,42.1,30.09,NW,311,0.0,0.0,75,0.00,,,0.00,Wunderground v.1.15,2013-02-15 14:30:00,
2013-02-15 09:40:00,50.4,42.4,30.09,NE,38,0.0,0.0,74,0.00,,,0.00,Wunderground v.1.15,2013-02-15 14:40:00,
2013-02-15 09:45:00,50.6,41.9,30.09,North,350,0.0,1.0,72,0.00,,,0.00,Wunderground v.1.15,2013-02-15 14:45:00,
2013-02-15 09:55:00,51.2,42.1,30.09,NNE,14,0.0,0.0,71,0.00,,,0.00,Wunderground v.1.15,2013-02-15 14:55:00,
2013-02-15 10:05:00,51.7,42.2,30.09,NE,38,0.0,0.0,70,0.00,,,0.00,Wunderground v.1.15,2013-02-15 15:05:00,
2013-02-15 10:15:00,52.5,41.1,30.08,NE,34,1.0,4.0,65,0.00,,,0.00,Wunderground v.1.15,2013-02-15 15:15:00,
2013-02-15 10:25:00,52.8,41.4,30.08,North,355,1.0,2.0,65,0.00,,,0.00,Wunderground v.1.15,2013-02-15 15:25:00,
2013-02-15 10:35:00,53.4,41.9,30.08,NE,36,0.0,0.0,65,0.00,,,0.00,Wunderground v.1.15,2013-02-15 15:35:00,
2013-02-15 10:45:00,53.9,40.8,30.08,NE,45,1.0,1.0,61,0.00,,,0.00,Wunderground v.1.15,2013-02-15 15:45:00,
2013-02-15 10:55:00,54.0,41.7,30.08,East,79,0.0,1.0,63,0.00,,,0.00,Wunderground v.1.15,2013-02-15 15:55:00,
2013-02-15 11:05:00,53.7,41.0,30.08,NE,51,0.0,0.0,62,0.00,,,0.00,Wunderground v.1.15,2013-02-15 16:05:00,
2013-02-15 11:10:00,53.0,42.7,30.08,SE,136,0.0,0.0,68,0.00,,,0.00,Wunderground v.1.15,2013-02-15 16:10:00,
2013-02-15 11:20:00,52.8,41.7,30.08,ESE,117,0.0,0.0,66,0.00,,,0.00,Wunderground v.1.15,2013-02-15 16:20:00,
2013-02-15 11:30:00,52.4,42.1,30.08,ESE,122,0.0,0.0,68,0.00,,,0.00,Wunderground v.1.15,2013-02-15 16:30:00,
2013-02-15 11:35:00,52.5,41.9,30.07,SE,126,0.0,0.0,67,0.00,,,0.00,Wunderground v.1.15,2013-02-15 16:35:00,
2013-02-15 11:45:00,52.4,43.3,30.07,SE,131,0.0,0.0,71,0.00,,,0.00,Wunderground v.1.15,2013-02-15 16:45:00,
2013-02-15 11:55:00,52.1,44.4,30.07,SSE,149,0.0,0.0,75,0.00,,,0.00,Wunderground v.1.15,2013-02-15 16:55:00,
2013-02-15 12:00:00,51.9,44.2,30.07,SE,139,0.0,0.0,75,0.00,,,0.00,Wunderground v.1.15,2013-02-15 17:00:00,
2013-02-15 12:10:00,51.5,43.8,30.07,SSE,159,0.0,0.0,75,0.00,,,0.00,Wunderground v.1.15,2013-02-15 17:10:00,
2013-02-15 12:20:00,51.4,44.1,30.06,SSE,166,0.0,0.0,76,0.00,,,0.00,Wunderground v.1.15,2013-02-15 17:20:00,
2013-02-15 12:30:00,51.3,44.0,30.06,SSE,162,0.0,0.0,76,0.00,,,0.00,Wunderground v.1.15,2013-02-15 17:30:00,
2013-02-15 12:35:00,51.5,44.5,30.06,SSE,148,0.0,0.0,77,0.00,,,0.00,Wunderground v.1.15,2013-02-15 17:35:00,
2013-02-15 12:45:00,51.5,44.5,30.05,SSE,161,0.0,0.0,77,0.00,,,0.00,Wunderground v.1.15,2013-02-15 17:45:00,
2013-02-15 12:55:00,51.7,44.0,30.05,SSE,165,0.0,0.0,75,0.00,,,0.00,Wunderground v.1.15,2013-02-15 17:55:00,
2013-02-15 13:05:00,51.8,43.8,30.05,SSE,167,0.0,0.0,74,0.00,,,0.00,Wunderground v.1.15,2013-02-15 18:05:00,
2013-02-15 13:15:00,51.9,43.9,30.04,SSE,150,0.0,0.0,74,0.00,,,0.00,Wunderground v.1.15,2013-02-15 18:15:00,
2013-02-15 13:20:00,51.9,43.5,30.04,SE,146,0.0,0.0,73,0.00,,,0.00,Wunderground v.1.15,2013-02-15 18:20:00,
2013-02-15 13:30:00,51.7,43.3,30.04,SE,146,0.0,0.0,73,0.00,,,0.00,Wunderground v.1.15,2013-02-15 18:30:00,
2013-02-15 13:35:00,52.1,43.7,30.04,SSE,149,0.0,0.0,73,0.00,,,0.00,Wunderground v.1.15,2013-02-15 18:35:00,
2013-02-15 13:45:00,51.9,43.2,30.03,SSE,167,0.0,0.0,72,0.00,,,0.00,Wunderground v.1.15,2013-02-15 18:45:00,
2013-02-15 13:55:00,52.0,43.3,30.02,SSE,153,0.0,0.0,72,0.00,,,0.00,Wunderground v.1.15,2013-02-15 18:55:00,
2013-02-15 14:05:00,52.2,42.3,30.02,SSE,167,0.0,0.0,69,0.00,,,0.00,Wunderground v.1.15,2013-02-15 19:05:00,
2013-02-15 14:15:00,52.3,42.8,30.02,SE,140,0.0,0.0,70,0.00,,,0.00,Wunderground v.1.15,2013-02-15 19:15:00,
2013-02-15 14:25:00,52.2,42.3,30.01,SE,145,0.0,0.0,69,0.00,,,0.00,Wunderground v.1.15,2013-02-15 19:25:00,
2013-02-15 14:35:00,52.1,43.3,30.01,South,182,0.0,1.0,72,0.00,,,0.00,Wunderground v.1.15,2013-02-15 19:35:00,
2013-02-15 14:40:00,52.3,42.8,30.01,SSE,148,0.0,0.0,70,0.00,,,0.00,Wunderground v.1.15,2013-02-15 19:40:00,
2013-02-15 14:50:00,52.4,42.5,30.00,SSE,167,0.0,0.0,69,0.00,,,0.00,Wunderground v.1.15,2013-02-15 19:50:00,
2013-02-15 14:55:00,52.3,42.8,30.00,SE,142,0.0,0.0,70,0.00,,,0.00,Wunderground v.1.15,2013-02-15 19:55:00,
2013-02-15 15:05:00,52.1,41.9,30.00,SSE,161,0.0,0.0,68,0.00,,,0.00,Wunderground v.1.15,2013-02-15 20:05:00,
2013-02-15 15:15:00,52.2,43.4,29.99,SSE,153,0.0,0.0,72,0.00,,,0.00,Wunderground v.1.15,2013-02-15 20:15:00,
2013-02-15 15:20:00,52.5,42.6,30.00,SSE,155,0.0,0.0,69,0.00,,,0.00,Wunderground v.1.15,2013-02-15 20:20:00,
2013-02-15 15:30:00,52.6,41.9,29.99,SSE,150,0.0,0.0,67,0.00,,,0.00,Wunderground v.1.15,2013-02-15 20:30:00,
2013-02-15 15:35:00,52.9,43.7,29.99,SSE,168,0.0,0.0,71,0.00,,,0.00,Wunderground v.1.15,2013-02-15 20:35:00,
2013-02-15 15:45:00,52.9,41.8,29.99,SSE,167,0.0,0.0,66,0.00,,,0.00,Wunderground v.1.15,2013-02-15 20:45:00,
2013-02-15 15:55:00,52.9,41.0,29.99,South,182,0.0,0.0,64,0.00,,,0.00,Wunderground v.1.15,2013-02-15 20:55:00,
2013-02-15 16:05:00,52.9,41.8,29.98,SSE,150,0.0,0.0,66,0.00,,,0.00,Wunderground v.1.15,2013-02-15 21:05:00,
2013-02-15 16:15:00,52.6,42.7,29.98,South,171,0.0,0.0,69,0.00,,,0.00,Wunderground v.1.15,2013-02-15 21:15:00,
2013-02-15 16:25:00,52.4,41.8,29.98,SSE,168,0.0,0.0,67,0.00,,,0.00,Wunderground v.1.15,2013-02-15 21:25:00,
2013-02-15 16:30:00,52.5,41.5,29.98,SSE,161,0.0,0.0,66,0.00,,,0.01,Wunderground v.1.15,2013-02-15 21:30:00,
2013-02-15 16:40:00,52.4,42.1,29.98,SSE,159,0.0,0.0,68,0.00,,,0.01,Wunderground v.1.15,2013-02-15 21:40:00,
2013-02-15 16:50:00,52.6,41.9,29.98,SSE,148,0.0,0.0,67,0.00,,,0.01,Wunderground v.1.15,2013-02-15 21:50:00,
2013-02-15 17:00:00,52.4,43.3,29.98,SSE,157,0.0,0.0,71,0.00,,,0.01,Wunderground v.1.15,2013-02-15 22:00:00,
2013-02-15 17:10:00,52.5,43.4,29.98,South,175,0.0,0.0,71,0.00,,,0.01,Wunderground v.1.15,2013-02-15 22:10:00,
2013-02-15 17:20:00,52.5,43.0,29.97,SSW,197,0.0,0.0,70,0.00,,,0.01,Wunderground v.1.15,2013-02-15 22:20:00,
2013-02-15 17:25:00,52.5,43.7,29.97,SSW,204,0.0,0.0,72,0.00,,,0.01,Wunderground v.1.15,2013-02-15 22:25:00,
2013-02-15 17:35:00,52.4,44.0,29.97,SSW,192,0.0,0.0,73,0.00,,,0.01,Wunderground v.1.15,2013-02-15 22:35:00,
2013-02-15 17:45:00,52.2,43.8,29.97,South,190,0.0,0.0,73,0.00,,,0.01,Wunderground v.1.15,2013-02-15 22:45:00,
2013-02-15 17:55:00,51.9,43.9,29.97,SSW,208,0.0,0.0,74,0.00,,,0.01,Wunderground v.1.15,2013-02-15 22:55:00,
2013-02-15 18:00:00,51.7,43.7,29.97,SSW,202,0.0,0.0,74,0.00,,,0.01,Wunderground v.1.15,2013-02-15 23:00:00,
2013-02-15 18:10:00,51.4,44.1,29.97,SSW,201,0.0,0.0,76,0.00,,,0.01,Wunderground v.1.15,2013-02-15 23:10:00,
2013-02-15 18:20:00,51.2,44.2,29.97,SW,219,0.0,0.0,77,0.00,,,0.01,Wunderground v.1.15,2013-02-15 23:20:00,
2013-02-15 18:25:00,51.1,44.1,29.97,SW,229,0.0,0.0,77,0.00,,,0.01,Wunderground v.1.15,2013-02-15 23:25:00,
2013-02-15 18:35:00,50.9,44.3,29.98,SW,236,0.0,0.0,78,0.00,,,0.01,Wunderground v.1.15,2013-02-15 23:35:00,
2013-02-15 18:45:00,50.5,44.2,29.98,WSW,248,0.0,0.0,79,0.00,,,0.01,Wunderground v.1.15,2013-02-15 23:45:00,
2013-02-15 18:50:00,50.4,44.1,29.98,WSW,242,0.0,0.0,79,0.00,,,0.01,Wunderground v.1.15,2013-02-15 23:50:00,
2013-02-15 18:55:00,50.3,44.0,29.98,WSW,244,0.0,0.0,79,0.00,,,0.01,Wunderground v.1.15,2013-02-15 23:55:00,
2013-02-15 19:05:00,49.9,43.6,29.99,WSW,248,0.0,0.0,79,0.00,,,0.01,Wunderground v.1.15,2013-02-16 00:05:00,
2013-02-15 19:15:00,49.7,43.8,29.98,WSW,248,0.0,0.0,80,0.00,,,0.01,Wunderground v.1.15,2013-02-16 00:15:00,
2013-02-15 19:25:00,49.4,43.5,29.98,WSW,248,0.0,0.0,80,0.00,,,0.01,Wunderground v.1.15,2013-02-16 00:25:00,
2013-02-15 19:30:00,49.3,43.7,29.98,WSW,248,0.0,0.0,81,0.00,,,0.01,Wunderground v.1.15,2013-02-16 00:30:00,
2013-02-15 19:40:00,49.1,43.8,29.98,WSW,248,0.0,0.0,82,0.00,,,0.01,Wunderground v.1.15,2013-02-16 00:40:00,
2013-02-15 19:50:00,48.9,43.6,29.99,West,279,0.0,0.0,82,0.00,,,0.01,Wunderground v.1.15,2013-02-16 00:50:00,
2013-02-15 19:55:00,48.8,43.5,29.99,West,265,0.0,0.0,82,0.00,,,0.01,Wunderground v.1.15,2013-02-16 00:55:00,
2013-02-15 20:00:00,48.8,43.5,29.99,WSW,254,0.0,0.0,82,0.00,,,0.01,Wunderground v.1.15,2013-02-16 01:00:00,
2013-02-15 20:10:00,48.9,43.6,29.99,WSW,252,0.0,0.0,82,0.00,,,0.01,Wunderground v.1.15,2013-02-16 01:10:00,
2013-02-15 20:15:00,48.9,43.6,29.99,WSW,250,0.0,0.0,82,0.00,,,0.01,Wunderground v.1.15,2013-02-16 01:15:00,
2013-02-15 20:25:00,48.8,43.2,29.98,WSW,250,0.0,0.0,81,0.00,,,0.01,Wunderground v.1.15,2013-02-16 01:25:00,
2013-02-15 20:30:00,48.8,43.2,29.98,WSW,250,0.0,0.0,81,0.00,,,0.01,Wunderground v.1.15,2013-02-16 01:30:00,
2013-02-15 20:40:00,48.7,43.1,29.98,WSW,250,0.0,0.0,81,0.00,,,0.01,Wunderground v.1.15,2013-02-16 01:40:00,
2013-02-15 20:50:00,48.4,42.8,29.97,WSW,250,0.0,0.0,81,0.00,,,0.01,Wunderground v.1.15,2013-02-16 01:50:00,
2013-02-15 21:00:00,48.1,42.5,29.97,WSW,254,0.0,0.0,81,0.00,,,0.01,Wunderground v.1.15,2013-02-16 02:00:00,
2013-02-15 21:10:00,48.0,42.8,29.97,WSW,254,0.0,0.0,82,0.00,,,0.01,Wunderground v.1.15,2013-02-16 02:10:00,
2013-02-15 21:20:00,48.0,42.8,29.97,WSW,254,0.0,0.0,82,0.00,,,0.01,Wunderground v.1.15,2013-02-16 02:20:00,
2013-02-15 21:25:00,47.8,42.6,29.97,WSW,254,0.0,0.0,82,0.00,,,0.01,Wunderground v.1.15,2013-02-16 02:25:00,
2013-02-15 21:35:00,47.7,42.8,29.97,WSW,254,0.0,0.0,83,0.00,,,0.01,Wunderground v.1.15,2013-02-16 02:35:00,
2013-02-15 21:40:00,47.4,42.2,29.97,WSW,254,0.0,0.0,82,0.00,,,0.01,Wunderground v.1.15,2013-02-16 02:40:00,
2013-02-15 21:50:00,47.2,42.0,29.98,WSW,254,0.0,0.0,82,0.00,,,0.01,Wunderground v.1.15,2013-02-16 02:50:00,
2013-02-15 22:00:00,46.9,41.7,29.98,WSW,254,0.0,0.0,82,0.00,,,0.01,Wunderground v.1.15,2013-02-16 03:00:00,
2013-02-15 22:10:00,46.7,41.8,29.98,WSW,254,0.0,0.0,83,0.00,,,0.01,Wunderground v.1.15,2013-02-16 03:10:00,
2013-02-15 22:20:00,46.6,41.7,29.97,WSW,254,0.0,0.0,83,0.00,,,0.01,Wunderground v.1.15,2013-02-16 03:20:00,
2013-02-15 22:30:00,46.5,41.9,29.97,WSW,254,0.0,0.0,84,0.00,,,0.01,Wunderground v.1.15,2013-02-16 03:30:00,
2013-02-15 22:40:00,46.4,41.8,29.97,WSW,254,0.0,0.0,84,0.00,,,0.01,Wunderground v.1.15,2013-02-16 03:40:00,
2013-02-15 22:50:00,46.3,42.0,29.97,WSW,254,0.0,0.0,85,0.00,,,0.01,Wunderground v.1.15,2013-02-16 03:50:00,
2013-02-15 23:00:00,46.1,41.8,29.97,WSW,255,0.0,0.0,85,0.00,,,0.01,Wunderground v.1.15,2013-02-16 04:00:00,
2013-02-15 23:10:00,46.0,42.0,29.97,WSW,257,0.0,0.0,86,0.00,,,0.01,Wunderground v.1.15,2013-02-16 04:10:00,
2013-02-15 23:15:00,45.9,41.9,29.97,WSW,257,0.0,0.0,86,0.00,,,0.01,Wunderground v.1.15,2013-02-16 04:15:00,
2013-02-15 23:20:00,45.8,41.9,29.96,WSW,258,0.0,0.0,86,0.00,,,0.01,Wunderground v.1.15,2013-02-16 04:20:00,
2013-02-15 23:30:00,45.7,41.8,29.96,WSW,258,0.0,0.0,86,0.00,,,0.01,Wunderground v.1.15,2013-02-16 04:30:00,
2013-02-15 23:35:00,45.7,42.1,29.96,WSW,258,0.0,0.0,87,0.00,,,0.01,Wunderground v.1.15,2013-02-16 04:35:00,
2013-02-15 23:40:00,45.7,42.1,29.96,WSW,258,0.0,0.0,87,0.00,,,0.01,Wunderground v.1.15,2013-02-16 04:40:00,
2013-02-15 23:50:00,45.6,42.0,29.96,WSW,258,0.0,0.0,87,0.00,,,0.01,Wunderground v.1.15,2013-02-16 04:50:00,
2013-02-15 23:55:00,45.5,41.9,29.96,WSW,258,0.0,0.0,87,0.00,,,0.01,Wunderground v.1.15,2013-02-16 04:55:00,